| time (UTC) | temp F | wind direction | speed MPH | gust MPH | rain 1hr in | rain 24hr in | rain mn in | humidity % | barometer mb |
| 20260505010947 | 77 | 258 | 2.0 | 5.0 | 0.00 | 0.00 | 0.00 | 34 | 1013.3 |
| 20260505010443 | 77 | 251 | 3.0 | 6.0 | 0.00 | 0.00 | 0.00 | 34 | 1013.6 |
| 20260505005939 | 77 | 217 | 0.0 | 2.0 | 0.00 | 0.00 | 0.00 | 35 | 1013.2 |
| 20260505005436 | 77 | 154 | 0.0 | 3.0 | 0.00 | 0.00 | 0.00 | 35 | 1013.4 |
| 20260505004934 | 78 | 339 | 0.0 | 2.0 | 0.00 | 0.00 | 0.00 | 34 | 1013.5 |
| 20260505004430 | 78 | 223 | 1.0 | 4.0 | 0.00 | 0.00 | 0.00 | 34 | 1013.5 |
| 20260505003927 | 78 | 130 | 0.0 | 3.0 | 0.00 | 0.00 | 0.00 | 36 | 1013.6 |
| 20260505003424 | 78 | 204 | 2.0 | 4.0 | 0.00 | 0.00 | 0.00 | 33 | 1013.4 |
| 20260505002920 | 78 | 347 | 0.0 | 3.0 | 0.00 | 0.00 | 0.00 | 36 | 1013.6 |
| 20260505002417 | 78 | 320 | 1.0 | 3.0 | 0.00 | 0.00 | 0.00 | 36 | 1013.4 |
| 20260505001915 | 78 | 300 | 2.0 | 6.0 | 0.00 | 0.00 | 0.00 | 35 | 1013.3 |
| 20260505001413 | 78 | 252 | 3.0 | 5.0 | 0.00 | 0.00 | 0.00 | 36 | 1013.7 |
| 20260505000910 | 78 | 203 | 2.0 | 3.0 | 0.00 | 0.00 | 0.00 | 36 | 1013.7 |
| 20260505000408 | 78 | 202 | 0.0 | 5.0 | 0.00 | 0.00 | 0.00 | 34 | 1013.5 |
| 20260504235904 | 78 | 242 | 0.0 | 2.0 | 0.00 | 0.00 | 0.00 | 40 | 1013.6 |
| 20260504235401 | 77 | 116 | 2.0 | 3.0 | 0.00 | 0.00 | 0.00 | 36 | 1013.9 |
| 20260504234857 | 77 | 255 | 3.0 | 6.0 | 0.00 | 0.00 | 0.00 | 35 | 1013.9 |
| 20260504234355 | 77 | 305 | 0.0 | 7.0 | 0.00 | 0.00 | 0.00 | 36 | 1013.9 |
| 20260504233851 | 77 | 244 | 3.0 | 5.0 | 0.00 | 0.00 | 0.00 | 38 | 1013.8 |
| 20260504233347 | 78 | 269 | 0.0 | 3.0 | 0.00 | 0.00 | 0.00 | 37 | 1014.1 |
| 20260504232844 | 78 | 288 | 0.0 | 3.0 | 0.00 | 0.00 | 0.00 | 38 | 1013.9 |
| 20260504232341 | 77 | 194 | 2.0 | 4.0 | 0.00 | 0.00 | 0.00 | 39 | 1013.9 |
| 20260504231838 | 77 | 89 | 0.0 | 3.0 | 0.00 | 0.00 | 0.00 | 37 | 1014.0 |
| 20260504231334 | 77 | 316 | 4.0 | 5.0 | 0.00 | 0.00 | 0.00 | 37 | 1013.7 |
| 20260504230830 | 78 | 237 | 1.0 | 3.0 | 0.00 | 0.00 | 0.00 | 37 | 1013.9 |
| 20260504230329 | 78 | 67 | 2.0 | 4.0 | 0.00 | 0.00 | 0.00 | 36 | 1013.8 |
| 20260504225827 | 78 | 285 | 0.0 | 2.0 | 0.00 | 0.00 | 0.00 | 38 | 1013.7 |
| 20260504225323 | 78 | 257 | 1.0 | 3.0 | 0.00 | 0.00 | 0.00 | 39 | 1013.8 |
| 20260504224821 | 77 | 40 | 1.0 | 5.0 | 0.00 | 0.00 | 0.00 | 39 | 1013.7 |
| 20260504224317 | 77 | 313 | 5.0 | 5.0 | 0.00 | 0.00 | 0.00 | 40 | 1013.8 |
| 20260504223814 | 77 | 9 | 2.0 | 4.0 | 0.00 | 0.00 | 0.00 | 40 | 1014.0 |
| 20260504223309 | 77 | 309 | 3.0 | 6.0 | 0.00 | 0.00 | 0.00 | 40 | 1013.8 |
| 20260504222807 | 77 | 350 | 5.0 | 5.0 | 0.00 | 0.00 | 0.00 | 40 | 1014.2 |
| 20260504222304 | 76 | 334 | 8.0 | 8.0 | 0.00 | 0.00 | 0.00 | 41 | 1014.2 |
| 20260504221801 | 76 | 274 | 4.0 | 6.0 | 0.00 | 0.00 | 0.00 | 41 | 1014.3 |
| 20260504221258 | 75 | 344 | 5.0 | 10.0 | 0.00 | 0.00 | 0.00 | 40 | 1014.5 |
| 20260504220755 | 76 | 329 | 4.0 | 12.0 | 0.00 | 0.00 | 0.00 | 41 | 1014.3 |
| 20260504220252 | 76 | 322 | 5.0 | 10.0 | 0.00 | 0.00 | 0.00 | 42 | 1014.4 |
| 20260504215749 | 75 | 329 | 5.0 | 10.0 | 0.00 | 0.00 | 0.00 | 42 | 1014.7 |
| 20260504215245 | 76 | 337 | 3.0 | 13.0 | 0.00 | 0.00 | 0.00 | 41 | 1014.6 |
| 20260504214741 | 77 | 335 | 5.0 | 8.0 | 0.00 | 0.00 | 0.00 | 40 | 1014.4 |
| 20260504214238 | 76 | 345 | 3.0 | 8.0 | 0.00 | 0.00 | 0.00 | 41 | 1014.5 |
| 20260504213735 | 77 | 0 | 3.0 | 5.0 | 0.00 | 0.00 | 0.00 | 39 | 1014.5 |
| 20260504213231 | 76 | 0 | 3.0 | 5.0 | 0.00 | 0.00 | 0.00 | 40 | 1014.9 |
| 20260504212728 | 76 | 336 | 2.0 | 3.0 | 0.00 | 0.00 | 0.00 | 41 | 1015.0 |
| 20260504212225 | 76 | 346 | 3.0 | 7.0 | 0.00 | 0.00 | 0.00 | 41 | 1015.0 |
| 20260504211722 | 75 | 327 | 3.0 | 11.0 | 0.00 | 0.00 | 0.00 | 41 | 1015.1 |
| 20260504211218 | 76 | 323 | 4.0 | 8.0 | 0.00 | 0.00 | 0.00 | 41 | 1015.3 |
| 20260504210716 | 76 | 343 | 3.0 | 7.0 | 0.00 | 0.00 | 0.00 | 40 | 1015.4 |
| 20260504210213 | 77 | 252 | 5.0 | 7.0 | 0.00 | 0.00 | 0.00 | 37 | 1015.4 |
| 20260504205710 | 77 | 350 | 3.0 | 5.0 | 0.00 | 0.00 | 0.00 | 40 | 1015.5 |
| 20260504205207 | 77 | 289 | 2.0 | 7.0 | 0.00 | 0.00 | 0.00 | 38 | 1015.2 |
| 20260504204706 | 77 | 283 | 0.0 | 10.0 | 0.00 | 0.00 | 0.00 | 37 | 1015.1 |
| 20260504204204 | 77 | 241 | 4.0 | 9.0 | 0.00 | 0.00 | 0.00 | 37 | 1015.4 |
| 20260504203702 | 78 | 280 | 5.0 | 8.0 | 0.00 | 0.00 | 0.00 | 36 | 1015.5 |
| 20260504203200 | 77 | 197 | 2.0 | 9.0 | 0.00 | 0.00 | 0.00 | 38 | 1015.5 |
| 20260504202654 | 77 | 252 | 5.0 | 11.0 | 0.00 | 0.00 | 0.00 | 36 | 1015.3 |
| 20260504202151 | 77 | 230 | 5.0 | 13.0 | 0.00 | 0.00 | 0.00 | 37 | 1015.4 |
| 20260504201648 | 78 | 275 | 2.0 | 4.0 | 0.00 | 0.00 | 0.00 | 37 | 1015.2 |
| 20260504201146 | 77 | 205 | 0.0 | 6.0 | 0.00 | 0.00 | 0.00 | 41 | 1015.3 |
| 20260504200643 | 77 | 235 | 4.0 | 10.0 | 0.00 | 0.00 | 0.00 | 40 | 1015.4 |
| 20260504200139 | 77 | 254 | 2.0 | 6.0 | 0.00 | 0.00 | 0.00 | 42 | 1015.3 |
| 20260504195635 | 77 | 28 | 2.0 | 3.0 | 0.00 | 0.00 | 0.00 | 40 | 1015.2 |
| 20260504195132 | 76 | 261 | 0.0 | 9.0 | 0.00 | 0.00 | 0.00 | 42 | 1015.3 |
| 20260504194629 | 76 | 318 | 1.0 | 3.0 | 0.00 | 0.00 | 0.00 | 41 | 1015.2 |
| 20260504194125 | 76 | 337 | 2.0 | 6.0 | 0.00 | 0.00 | 0.00 | 43 | 1015.1 |
| 20260504193621 | 76 | 11 | 4.0 | 7.0 | 0.00 | 0.00 | 0.00 | 42 | 1015.3 |
| 20260504193120 | 76 | 349 | 2.0 | 4.0 | 0.00 | 0.00 | 0.00 | 42 | 1015.5 |
| 20260504192617 | 76 | 314 | 10.0 | 10.0 | 0.00 | 0.00 | 0.00 | 42 | 1015.7 |
| 20260504192115 | 76 | 21 | 3.0 | 7.0 | 0.00 | 0.00 | 0.00 | 44 | 1015.6 |
| 20260504191613 | 76 | 328 | 4.0 | 9.0 | 0.00 | 0.00 | 0.00 | 43 | 1015.5 |
| 20260504191109 | 77 | 252 | 3.0 | 9.0 | 0.00 | 0.00 | 0.00 | 42 | 1015.6 |
| 20260504190605 | 77 | 347 | 4.0 | 7.0 | 0.00 | 0.00 | 0.00 | 42 | 1015.5 |
| 20260504185559 | 76 | 233 | 3.0 | 6.0 | 0.00 | 0.00 | 0.00 | 40 | 1015.5 |
| 20260504185055 | 76 | 5 | 3.0 | 7.0 | 0.00 | 0.00 | 0.00 | 42 | 1015.3 |
| 20260504184551 | 76 | 78 | 2.0 | 7.0 | 0.00 | 0.00 | 0.00 | 41 | 1015.2 |
| 20260504184046 | 77 | 15 | 3.0 | 5.0 | 0.00 | 0.00 | 0.00 | 41 | 1015.2 |
| 20260504183543 | 75 | 298 | 2.0 | 7.0 | 0.00 | 0.00 | 0.00 | 44 | 1015.2 |
| 20260504183042 | 75 | 9 | 3.0 | 7.0 | 0.00 | 0.00 | 0.00 | 44 | 1015.3 |
| 20260504182538 | 75 | 342 | 5.0 | 9.0 | 0.00 | 0.00 | 0.00 | 44 | 1015.4 |
| 20260504182036 | 75 | 351 | 4.0 | 8.0 | 0.00 | 0.00 | 0.00 | 44 | 1016.0 |
| 20260504181532 | 76 | 257 | 4.0 | 8.0 | 0.00 | 0.00 | 0.00 | 36 | 1016.1 |
| 20260504181031 | 76 | 238 | 1.0 | 5.0 | 0.00 | 0.00 | 0.00 | 35 | 1016.0 |
| 20260504180529 | 76 | 239 | 5.0 | 8.0 | 0.00 | 0.00 | 0.00 | 34 | 1016.1 |
| 20260504180028 | 75 | 291 | 3.0 | 10.0 | 0.00 | 0.00 | 0.00 | 38 | 1015.7 |
| 20260504175525 | 75 | 226 | 2.0 | 5.0 | 0.00 | 0.00 | 0.00 | 45 | 1015.7 |
| 20260504175022 | 74 | 269 | 0.0 | 3.0 | 0.00 | 0.00 | 0.00 | 44 | 1015.3 |
| 20260504174520 | 74 | 242 | 0.0 | 3.0 | 0.00 | 0.00 | 0.00 | 44 | 1015.0 |
| 20260504174016 | 75 | 85 | 3.0 | 5.0 | 0.00 | 0.00 | 0.00 | 43 | 1015.0 |
| 20260504173513 | 74 | 236 | 0.0 | 6.0 | 0.00 | 0.00 | 0.00 | 45 | 1015.4 |
| 20260504173011 | 74 | 267 | 0.0 | 2.0 | 0.00 | 0.00 | 0.00 | 45 | 1015.2 |
| 20260504172507 | 74 | 283 | 1.0 | 5.0 | 0.00 | 0.00 | 0.00 | 46 | 1015.2 |
| 20260504172003 | 74 | 342 | 3.0 | 4.0 | 0.00 | 0.00 | 0.00 | 46 | 1015.2 |
| 20260504171500 | 74 | 0 | 2.0 | 5.0 | 0.00 | 0.00 | 0.00 | 46 | 1015.2 |
| 20260504170957 | 74 | 172 | 1.0 | 2.0 | 0.00 | 0.00 | 0.00 | 44 | 1015.6 |
| 20260504170453 | 74 | 235 | 4.0 | 6.0 | 0.00 | 0.00 | 0.00 | 44 | 1015.5 |
| 20260504160413 | 74 | 186 | 4.0 | 10.0 | 0.00 | 0.00 | 0.00 | 35 | 1015.5 |
| 20260504150837 | 73 | 218 | 4.0 | 10.0 | 0.00 | 0.00 | 0.00 | 42 | 1015.1 |
| 20260504150333 | 73 | 232 | 1.0 | 9.0 | 0.00 | 0.00 | 0.00 | 42 | 1015.1 |
| 20260504141303 | 71 | 173 | 0.0 | 4.0 | 0.00 | 0.00 | 0.00 | 44 | 1014.6 |
| 20260504140800 | 71 | 286 | 0.0 | 2.0 | 0.00 | 0.00 | 0.00 | 45 | 1014.3 |
| 20260504140255 | 71 | 147 | 0.0 | 2.0 | 0.00 | 0.00 | 0.00 | 46 | 1014.4 |
| 20260504130725 | 70 | 148 | 2.0 | 4.0 | 0.00 | 0.00 | 0.00 | 47 | 1014.4 |
| 20260504130220 | 70 | 135 | 0.0 | 3.0 | 0.00 | 0.00 | 0.00 | 47 | 1014.2 |
| 20260504120144 | 70 | 135 | 0.0 | 2.0 | 0.00 | 0.00 | 0.00 | 47 | 1013.5 |
| 20260504110612 | 71 | 100 | 2.0 | 2.0 | 0.00 | 0.00 | 0.00 | 44 | 1013.5 |
| 20260504110108 | 71 | 166 | 0.0 | 2.0 | 0.00 | 0.00 | 0.00 | 45 | 1013.6 |
| 20260504100533 | 73 | 19 | 0.0 | 1.0 | 0.00 | 0.00 | 0.00 | 42 | 1013.4 |
| 20260504081927 | 75 | 125 | 3.0 | 6.0 | 0.00 | 0.00 | 0.00 | 38 | 1012.8 |
| 20260504081424 | 75 | 153 | 2.0 | 6.0 | 0.00 | 0.00 | 0.00 | 38 | 1013.0 |
| 20260504080920 | 75 | 170 | 2.0 | 6.0 | 0.00 | 0.00 | 0.00 | 38 | 1013.3 |
| 20260504080417 | 75 | 151 | 3.0 | 6.0 | 0.00 | 0.00 | 0.00 | 38 | 1013.2 |
| 20260504070345 | 77 | 126 | 3.0 | 3.0 | 0.00 | 0.00 | 0.00 | 35 | 1013.3 |
| 20260504050732 | 79 | 138 | 2.0 | 4.0 | 0.00 | 0.00 | 0.00 | 28 | 1013.0 |
| 20260504050229 | 79 | 220 | 2.0 | 3.0 | 0.00 | 0.00 | 0.00 | 27 | 1013.0 |
| 20260504045726 | 80 | 210 | 0.0 | 7.0 | 0.00 | 0.00 | 0.00 | 27 | 1013.0 |
| 20260504045221 | 80 | 237 | 5.0 | 8.0 | 0.00 | 0.00 | 0.00 | 26 | 1012.8 |
| 20260504044719 | 80 | 180 | 1.0 | 8.0 | 0.00 | 0.00 | 0.00 | 26 | 1013.0 |
| 20260504044217 | 80 | 150 | 2.0 | 7.0 | 0.00 | 0.00 | 0.00 | 26 | 1012.7 |
| 20260504043714 | 81 | 240 | 4.0 | 9.0 | 0.00 | 0.00 | 0.00 | 25 | 1012.5 |
| 20260504043210 | 81 | 182 | 5.0 | 12.0 | 0.00 | 0.00 | 0.00 | 25 | 1012.6 |
| 20260504042708 | 81 | 218 | 2.0 | 8.0 | 0.00 | 0.00 | 0.00 | 25 | 1012.5 |
| 20260504042204 | 81 | 169 | 0.0 | 4.0 | 0.00 | 0.00 | 0.00 | 26 | 1012.3 |
| 20260504041700 | 81 | 158 | 1.0 | 3.0 | 0.00 | 0.00 | 0.00 | 25 | 1012.3 |
| 20260504041156 | 81 | 200 | 1.0 | 6.0 | 0.00 | 0.00 | 0.00 | 25 | 1012.4 |
| 20260504040653 | 82 | 230 | 2.0 | 6.0 | 0.00 | 0.00 | 0.00 | 25 | 1012.2 |
| 20260504040150 | 82 | 187 | 2.0 | 10.0 | 0.00 | 0.00 | 0.00 | 24 | 1012.3 |
| 20260504035646 | 82 | 190 | 1.0 | 12.0 | 0.00 | 0.00 | 0.00 | 24 | 1012.0 |
| 20260504035144 | 82 | 186 | 5.0 | 9.0 | 0.00 | 0.00 | 0.00 | 24 | 1012.0 |
| 20260504034641 | 82 | 223 | 6.0 | 14.0 | 0.00 | 0.00 | 0.00 | 23 | 1011.9 |
| 20260504034138 | 83 | 207 | 4.0 | 8.0 | 0.00 | 0.00 | 0.00 | 23 | 1011.6 |
| 20260504033636 | 83 | 201 | 2.0 | 10.0 | 0.00 | 0.00 | 0.00 | 23 | 1011.6 |
| 20260504033133 | 83 | 207 | 3.0 | 14.0 | 0.00 | 0.00 | 0.00 | 23 | 1011.1 |
| 20260504032630 | 83 | 221 | 4.0 | 13.0 | 0.00 | 0.00 | 0.00 | 22 | 1011.3 |
| 20260504032127 | 83 | 167 | 2.0 | 7.0 | 0.00 | 0.00 | 0.00 | 22 | 1011.3 |
| 20260504031624 | 84 | 212 | 6.0 | 15.0 | 0.00 | 0.00 | 0.00 | 22 | 1011.0 |
| 20260504031120 | 84 | 190 | 3.0 | 7.0 | 0.00 | 0.00 | 0.00 | 21 | 1010.9 |
| 20260504030617 | 84 | 151 | 2.0 | 12.0 | 0.00 | 0.00 | 0.00 | 21 | 1010.6 |
| 20260504030114 | 84 | 217 | 3.0 | 10.0 | 0.00 | 0.00 | 0.00 | 21 | 1010.8 |
| 20260504025610 | 85 | 242 | 7.0 | 15.0 | 0.00 | 0.00 | 0.00 | 20 | 1010.8 |
| 20260504025108 | 85 | 216 | 3.0 | 9.0 | 0.00 | 0.00 | 0.00 | 20 | 1010.7 |
| 20260504024605 | 85 | 216 | 3.0 | 11.0 | 0.00 | 0.00 | 0.00 | 20 | 1010.5 |
| 20260504024101 | 85 | 164 | 4.0 | 8.0 | 0.00 | 0.00 | 0.00 | 20 | 1010.5 |
| 20260504023558 | 86 | 204 | 3.0 | 13.0 | 0.00 | 0.00 | 0.00 | 19 | 1010.3 |
| 20260504023054 | 86 | 182 | 5.0 | 11.0 | 0.00 | 0.00 | 0.00 | 19 | 1010.3 |
| 20260504022550 | 86 | 209 | 3.0 | 13.0 | 0.00 | 0.00 | 0.00 | 19 | 1010.2 |
| 20260504022046 | 86 | 214 | 7.0 | 12.0 | 0.00 | 0.00 | 0.00 | 19 | 1009.8 |
| 20260504021544 | 87 | 226 | 2.0 | 9.0 | 0.00 | 0.00 | 0.00 | 18 | 1009.6 |
| 20260504021041 | 87 | 206 | 5.0 | 10.0 | 0.00 | 0.00 | 0.00 | 18 | 1009.8 |
| 20260504020538 | 87 | 217 | 7.0 | 12.0 | 0.00 | 0.00 | 0.00 | 18 | 1009.7 |
| 20260504020034 | 87 | 180 | 5.0 | 14.0 | 0.00 | 0.00 | 0.00 | 17 | 1009.5 |
| 20260504015530 | 88 | 223 | 3.0 | 11.0 | 0.00 | 0.00 | 0.00 | 18 | 1009.2 |
| 20260504015026 | 88 | 189 | 2.0 | 11.0 | 0.00 | 0.00 | 0.00 | 18 | 1009.4 |
| 20260504014523 | 89 | 190 | 15.0 | 16.0 | 0.00 | 0.00 | 0.00 | 17 | 1009.6 |
| 20260504014020 | 89 | 208 | 3.0 | 14.0 | 0.00 | 0.00 | 0.00 | 18 | 1009.3 |
| 20260504013518 | 90 | 212 | 3.0 | 11.0 | 0.00 | 0.00 | 0.00 | 17 | 1009.0 |
| 20260504013015 | 90 | 217 | 2.0 | 6.0 | 0.00 | 0.00 | 0.00 | 16 | 1009.0 |
| 20260504012512 | 91 | 214 | 2.0 | 5.0 | 0.00 | 0.00 | 0.00 | 15 | 1008.8 |
| 20260504012010 | 91 | 240 | 2.0 | 13.0 | 0.00 | 0.00 | 0.00 | 16 | 1009.1 |
| 20260504011506 | 91 | 211 | 4.0 | 7.0 | 0.00 | 0.00 | 0.00 | 15 | 1008.9 |